Temperature
28 29 29 29 29 29 29 29 28 27 26 26 24 23 22 21 20 19 19 18 17 16 16 15 15 16 16 16 16 16 17 16 16 16 16 16 16 16 16 16 16 16 16 16
29 29 29 29 29 29 29 28 28 26 25 25 24 23 22 22 20 19 19 18 17 17 16 16 16 16 16 16 16 16 16 16 16 16 16 16 16 15 15 15 15 15 15 15
29 29 29 29 29 29 29 29 28 27 25 25 25 24 23 22 21 20 19 18 18 17 17 17 16 16 16 16 16 16 16 16 16 16 16 15 15 15 15 15 15 15 15 15
29 29 28 29 29 29 28 29 28 27 26 27 26 25 24 23 23 22 20 20 19 18 18 17 17 16 16 16 16 16 16 16 16 15 15 15 15 15 15 14 14 14 15 15
28 28 28 28 28 28 28 28 28 27 27 27 26 26 24 24 23 22 21 20 19 19 18 17 17 17 16 16 16 15 15 15 15 15 15 15 15 15 15 14 14 14 14 14
28 28 28 28 28 28 27 27 27 27 28 26 26 26 24 24 23 23 22 20 19 19 18 18 17 17 16 16 15 15 15 14 15 14 14 14 14 14 14 13 14 14 14 13
28 28 28 28 28 28 28 27 26 26 26 26 25 25 23 22 22 22 21 20 19 19 18 18 17 17 16 16 15 15 14 14 14 13 13 13 13 13 13 13 13 13 13 13
27 27 27 28 27 28 27 27 26 25 26 26 25 24 22 21 21 20 20 20 19 19 18 18 17 17 16 15 15 14 14 13 13 13 12 12 12 12 13 13 13 13 13 13
27 27 27 27 27 27 27 27 27 27 26 25 25 23 21 21 21 21 20 20 19 19 18 18 17 16 16 15 14 13 13 12 12 12 12 12 11 11 12 11 11 12 12 12
27 26 27 27 28 27 27 27 27 26 24 24 25 24 23 22 22 21 21 20 19 18 18 17 16 16 15 14 13 13 12 12 11 11 11 11 11 11 10 11 11 11 11 11
27 27 27 27 26 26 26 26 26 26 25 24 24 24 23 22 21 21 21 19 18 18 17 16 15 15 14 13 13 12 12 11 11 10 10 10 10 10 10 10 10 10 10 10
26 27 26 26 25 26 26 25 25 25 24 24 24 24 22 22 21 20 19 19 18 17 16 15 15 14 13 13 12 12 11 11 10 10 9 9 9 9 9 9 9 9 9 9
26 26 25 25 25 26 25 25 25 25 25 24 24 24 22 21 21 20 19 18 17 16 15 15 14 13 12 12 11 11 10 10 9 9 9 8 8 8 8 8 8 8 8 8
25 26 26 25 25 25 25 24 24 25 24 24 23 23 23 22 21 20 19 17 16 15 15 14 13 12 12 11 10 10 9 9 9 8 8 8 7 7 7 7 7 7 7 8
26 26 26 25 25 25 25 24 24 23 23 23 23 22 22 22 20 19 17 17 16 15 14 13 12 12 11 10 9 9 9 8 8 7 7 7 7 7 7 7 7 7 7 7
26 25 25 25 25 24 24 24 23 23 23 23 23 22 22 20 19 18 17 16 15 14 13 12 12 11 10 9 9 8 8 8 7 7 7 7 6 6 6 6 6 6 6 6
26 25 25 25 25 24 24 24 23 23 23 23 22 22 22 20 19 17 16 15 14 13 12 11 11 10 10 9 8 8 8 7 7 6 6 6 6 6 6 6 6 6 6 6
25 24 25 25 24 23 24 24 24 23 23 23 22 22 21 19 18 16 15 14 13 12 11 11 10 10 9 9 8 7 7 7 6 6 6 6 6 6 6 6 6 6 6 6
24 24 25 25 25 25 24 23 23 22 22 23 22 21 19 18 17 18 15 13 12 11 11 10 9 9 9 8 8 7 7 6 6 6 6 6 6 6 6 6 6 6 5 5
23 23 25 24 23 23 24 23 22 22 22 22 20 20 19 18 18 18 15 13 12 11 10 9 9 9 8 8 7 7 6 6 6 6 6 6 6 6 6 6 6 6 5 5
24 24 24 24 24 25 24 22 21 22 22 20 19 18 17 17 16 15 13 12 11 10 10 9 9 8 8 7 7 6 6 6 6 6 6 6 6 6 6 6 6 5 5 5
25 25 24 24 23 24 23 22 22 22 20 19 18 17 16 15 15 14 13 11 11 10 9 9 8 8 8 7 7 6 6 6 6 6 6 6 6 6 6 6 6 6 5 5
25 25 25 24 24 23 22 23 22 20 19 18 17 16 15 15 14 13 12 11 10 10 9 9 8 8 7 7 7 6 6 6 6 6 6 6 6 6 6 6 6 6 5 5
25 22 23 23 24 23 22 21 20 19 18 17 16 15 15 14 13 12 11 11 10 9 9 8 8 8 7 7 7 7 6 6 6 6 6 6 6 6 6 6 6 6 5 5
25 23 23 23 24 23 22 21 20 19 17 16 16 15 14 13 13 12 11 10 9 9 8 8 7 7 7 7 7 7 6 6 6 6 6 6 6 7 6 6 6 6 6 5
25 24 23 24 24 23 23 21 20 18 17 16 15 14 14 13 12 11 10 10 9 9 8 8 7 7 7 7 7 7 6 6 6 6 6 6 7 7 7 6 6 6 6 5
Wind_Speed
4 6 1 2 3 3 1 2 2 5 4 5 8 9 7 6 7 7 7 7 6 7 6 6 6 5 5 4 3 3 3 3 4 4 5 6 6 6 5 5 6 7 7 7
6 2 3 3 1 3 4 4 3 5 5 3 7 8 7 6 7 6 7 7 7 7 7 6 5 5 4 4 4 3 2 3 4 4 5 5 6 6 5 5 5 6 6 6
4 3 3 4 3 5 5 4 2 4 6 7 8 8 7 7 7 6 6 6 6 6 6 5 5 5 4 4 3 3 3 4 5 6 5 5 5 5 5 6 5 6 6 5
3 2 4 6 4 5 3 0 3 6 8 5 8 3 8 7 6 5 5 5 5 4 4 3 3 3 3 2 2 3 4 5 5 6 6 8 8 8 8 6 6 6 5 5
3 4 4 3 2 4 2 1 4 7 8 5 6 5 8 7 5 5 4 3 2 2 1 1 1 2 3 4 4 5 6 7 7 7 7 8 9 9 8 7 6 6 5 4
2 1 3 3 2 1 1 3 5 8 9 7 2 5 6 4 3 3 2 1 1 1 2 3 4 4 6 6 7 8 8 9 9 9 9 10 11 11 11 10 9 7 6 4
3 4 3 3 2 3 4 6 6 6 6 2 2 3 6 5 3 1 1 1 2 3 4 5 7 8 9 10 11 11 11 11 11 11 11 11 12 12 13 13 11 10 9 7
2 3 6 6 5 4 3 6 6 7 6 2 3 1 6 4 2 1 2 3 4 5 6 8 9 11 11 12 12 12 13 13 13 13 13 13 13 13 13 12 13 13 11 10
4 2 4 5 6 5 3 4 6 7 6 6 1 5 6 4 1 1 3 4 6 7 9 10 11 12 12 12 13 13 14 14 15 15 15 14 14 13 14 14 14 14 12 11
4 1 3 1 1 7 5 4 4 5 6 6 3 2 3 2 4 4 5 7 8 10 11 12 12 12 12 13 14 14 15 15 16 16 16 14 15 15 15 15 15 15 15 14
4 2 2 2 5 7 4 3 4 4 5 7 7 3 5 5 5 7 7 8 10 12 14 14 13 13 14 15 16 16 16 17 17 17 16 16 16 16 16 16 16 15 15 15
3 3 1 4 4 3 5 5 5 5 4 5 8 3 7 4 6 7 9 10 12 13 14 15 15 15 16 17 17 18 18 18 18 17 17 17 17 17 17 17 17 16 16 16
2 2 3 6 5 3 2 4 4 4 4 5 8 6 3 4 8 8 10 13 14 15 15 15 15 16 17 17 18 18 18 19 18 18 18 18 18 18 18 17 17 17 17 16
2 3 5 5 5 3 0 1 3 5 6 8 8 12 12 11 11 10 12 15 16 16 16 16 16 17 17 18 18 18 18 18 18 18 18 18 18 18 18 18 18 17 17 17
3 1 2 2 1 3 3 2 2 4 6 9 12 14 14 12 11 11 14 16 17 16 16 17 17 18 18 18 18 18 18 18 18 18 19 19 19 18 18 18 18 18 17 18
1 2 3 3 3 4 6 5 5 5 7 10 13 13 9 9 10 13 15 16 17 16 17 18 19 19 19 19 18 18 18 18 18 18 19 19 18 18 18 18 18 18 18 18
3 3 5 5 2 7 7 7 7 6 8 11 13 14 13 13 14 15 16 15 15 17 18 19 19 19 19 18 18 18 18 18 18 18 18 18 18 18 18 19 19 18 18 18
5 5 5 7 5 7 2 3 3 7 10 10 11 13 13 13 14 14 12 11 15 17 18 19 18 19 19 18 18 17 18 17 18 18 18 18 18 19 19 19 18 18 17 16
5 6 6 7 10 10 3 4 3 7 12 6 9 12 13 13 15 9 5 11 15 16 17 17 18 19 19 18 17 17 17 17 17 18 18 18 18 19 19 18 18 17 15 15
5 7 8 8 11 10 1 6 2 5 6 2 7 11 12 13 13 11 13 15 16 16 16 17 18 18 17 17 17 17 17 17 18 18 18 18 18 18 18 18 17 15 14 14
7 7 10 11 11 7 6 7 4 6 8 6 7 9 10 11 11 15 16 16 16 17 17 17 17 16 16 16 16 17 17 17 17 18 18 18 17 17 17 16 15 14 13 12
7 7 7 7 8 4 10 6 4 6 4 5 6 7 9 11 13 14 15 15 16 17 17 17 16 17 16 16 16 17 17 17 17 17 17 18 17 15 14 15 14 12 11 10
5 5 6 5 6 3 7 6 2 3 5 5 5 7 8 11 13 14 14 15 15 16 16 16 17 17 16 15 15 17 17 17 16 17 17 17 17 15 13 13 12 11 8 7
5 2 6 8 8 6 7 8 7 6 6 4 4 6 8 11 13 13 13 14 15 16 16 16 17 17 17 17 16 16 16 15 15 16 16 15 14 14 13 10 9 8 7 6
9 5 8 11 11 7 9 9 8 6 6 5 5 6 8 10 12 13 13 14 15 15 15 15 15 16 18 17 17 16 15 15 15 15 14 14 13 12 11 9 7 8 6 5
9 9 10 9 5 6 4 4 5 7 7 6 6 6 7 8 11 12 13 13 14 15 15 15 16 17 17 17 17 16 15 14 14 13 12 11 11 10 9 9 7 2 3 3
Wind_Direction
217 236 242 7 331 339 282 230 130 97 103 88 101 101 91 88 81 79 75 75 76 74 74 73 74 72 71 64 54 30 5 346 325 323 316 315 311 308 303 299 305 302 298 293
221 197 21 341 260 227 221 212 152 125 134 139 126 112 102 90 84 79 82 81 83 89 88 80 80 81 74 62 44 30 5 356 336 342 321 314 316 313 315 309 309 314 314 313
297 19 352 283 238 230 233 255 205 162 158 167 160 145 133 117 110 106 99 96 91 88 86 86 82 78 72 59 36 20 359 344 344 335 325 325 313 307 319 321 319 329 332 332
292 342 303 277 259 270 250 302 224 186 200 198 223 205 142 142 136 121 112 107 103 100 91 85 82 68 53 33 8 351 338 337 335 326 333 332 328 329 330 322 323 323 329 331
330 339 312 290 340 306 357 350 221 215 239 233 215 255 137 155 150 135 122 110 109 101 81 54 1 343 338 332 331 329 329 325 324 321 314 308 312 318 317 316 310 305 305 308
7 11 346 352 357 29 159 205 207 224 237 236 208 270 135 135 118 122 133 142 207 272 296 302 306 308 312 317 319 321 322 318 315 310 307 301 302 302 303 301 300 293 293 291
114 92 58 346 254 169 251 268 258 239 236 218 131 256 94 83 70 43 329 279 276 287 298 306 310 314 315 317 321 322 321 317 316 311 307 302 297 292 284 284 287 285 285 278
326 76 43 24 360 336 337 309 314 308 314 325 180 164 100 84 68 352 305 300 298 300 304 305 309 312 315 319 323 324 324 320 317 312 308 303 296 289 289 288 289 286 282 278
350 53 84 48 36 339 326 351 336 296 291 289 165 122 127 129 90 328 312 307 309 313 313 312 316 317 320 322 322 321 319 316 314 312 307 297 295 295 295 292 280 277 274 270
346 312 78 84 155 55 28 354 315 321 326 313 296 210 131 92 350 332 321 321 322 320 318 319 319 318 319 317 316 316 314 313 312 309 308 306 305 298 293 289 288 284 280 274
342 295 125 124 41 24 20 21 353 335 339 320 322 25 79 17 339 322 321 321 321 322 322 321 319 319 317 315 315 316 315 314 312 310 309 305 301 299 296 289 284 281 277 273
354 314 98 102 92 45 48 24 359 338 344 319 310 7 104 8 322 312 313 318 322 322 320 318 318 319 317 317 318 316 315 313 311 310 307 303 301 298 294 291 289 286 280 273
10 296 215 173 170 144 64 46 15 340 312 318 316 343 97 309 303 303 309 318 321 321 320 318 318 319 318 318 317 315 313 311 311 310 307 304 302 300 297 295 291 286 280 274
312 19 356 16 18 1 296 72 355 327 329 324 326 323 328 329 318 312 316 320 321 321 319 317 318 317 318 316 314 313 311 311 310 309 306 303 301 299 297 294 291 287 281 275
276 13 29 22 351 298 285 260 289 334 336 322 324 319 327 338 329 320 317 319 320 320 319 320 319 319 317 316 315 313 312 312 311 309 306 304 303 301 298 294 291 287 282 276
271 285 271 245 237 271 268 249 252 286 311 316 315 322 349 328 314 314 320 322 319 320 322 321 320 319 318 317 315 314 312 312 311 308 306 306 304 301 298 295 292 288 283 278
228 250 280 296 261 277 266 235 241 280 315 317 315 326 330 318 319 320 320 318 319 321 321 320 319 318 317 316 316 313 313 312 310 307 304 303 301 300 297 295 292 288 284 279
240 251 272 294 281 280 30 105 249 286 303 309 308 317 323 319 317 308 306 317 320 320 319 319 318 317 317 318 318 315 313 311 309 306 304 304 303 301 300 296 292 288 283 279
226 237 271 283 287 291 173 183 236 296 305 310 316 320 320 322 311 315 8 330 320 318 319 317 317 317 318 318 319 317 313 311 308 307 308 308 306 304 302 299 296 293 287 280
193 225 258 272 290 297 27 135 146 284 291 24 319 316 320 321 317 334 345 330 323 322 320 319 318 317 318 321 320 315 312 310 309 310 310 309 305 302 302 300 298 295 289 282
220 229 252 271 279 285 123 143 189 290 343 348 320 316 315 318 312 317 322 323 322 320 319 320 319 319 321 320 318 313 310 309 311 310 309 307 305 304 302 301 300 297 292 285
268 267 258 271 275 284 139 168 250 320 336 316 313 312 313 311 311 315 319 320 321 321 322 323 322 320 321 320 318 313 311 312 311 309 308 308 308 308 306 305 305 303 298 291
251 286 293 273 292 81 184 218 255 292 291 301 304 311 313 311 315 318 320 321 322 322 323 323 322 319 320 323 321 314 313 314 311 309 309 310 311 311 309 309 310 309 304 294
229 209 257 263 271 245 224 232 243 250 266 282 290 304 309 311 316 319 320 321 323 324 324 324 322 321 321 323 321 316 315 314 311 310 311 312 313 315 318 316 315 313 312 307
290 236 256 261 271 261 234 231 238 234 236 248 267 292 306 310 313 318 319 321 323 323 324 323 321 320 320 323 320 320 321 320 315 313 314 314 316 319 320 321 323 324 333 332
261 248 254 275 277 245 239 190 207 215 223 238 263 287 301 306 311 316 317 321 322 322 323 323 323 322 322 322 321 323 325 323 315 313 315 315 317 319 320 323 328 330 310 330
Height
1498 1495 1491 1489 1489 1489 1489 1490 1494 1498 1502 1503 1508 1513 1517 1519 1519 1520 1521 1521 1521 1521 1521 1520 1520 1519 1519 1519 1518 1518 1518 1517 1516 1515 1514 1513 1511 1508 1506 1503 1500 1497 1495 1493
1495 1493 1491 1491 1491 1491 1490 1492 1495 1501 1504 1504 1510 1514 1516 1518 1520 1521 1522 1522 1523 1523 1523 1522 1521 1521 1520 1520 1519 1518 1518 1517 1515 1514 1512 1511 1508 1506 1504 1501 1498 1495 1493 1490
1493 1492 1492 1491 1489 1490 1489 1490 1492 1498 1503 1503 1506 1513 1514 1517 1520 1522 1523 1523 1524 1524 1524 1523 1523 1522 1521 1520 1519 1519 1517 1516 1515 1513 1512 1510 1507 1505 1503 1499 1496 1493 1491 1489
1491 1491 1492 1490 1488 1488 1491 1488 1490 1496 1500 1498 1501 1507 1511 1512 1516 1519 1522 1523 1524 1524 1524 1524 1523 1523 1522 1521 1519 1518 1516 1515 1513 1511 1510 1508 1507 1504 1501 1498 1495 1491 1489 1487
1493 1492 1492 1491 1490 1489 1490 1490 1490 1492 1493 1495 1497 1499 1509 1509 1513 1516 1520 1522 1523 1524 1524 1524 1523 1522 1521 1520 1519 1517 1514 1512 1510 1508 1507 1505 1504 1502 1499 1496 1493 1490 1487 1485
1493 1493 1492 1491 1490 1491 1491 1491 1491 1489 1488 1501 1497 1500 1511 1508 1512 1515 1519 1522 1523 1523 1523 1523 1522 1521 1520 1519 1517 1515 1512 1510 1507 1505 1503 1501 1499 1497 1495 1492 1490 1488 1486 1483
1494 1492 1492 1491 1488 1489 1489 1493 1500 1502 1502 1502 1497 1500 1515 1513 1515 1517 1519 1520 1522 1522 1522 1521 1520 1519 1518 1516 1514 1512 1509 1506 1503 1501 1499 1497 1494 1492 1490 1488 1487 1484 1482 1480
1499 1500 1494 1493 1492 1491 1491 1491 1503 1512 1506 1498 1498 1504 1515 1516 1518 1520 1520 1520 1520 1520 1520 1519 1518 1516 1514 1512 1510 1507 1504 1501 1499 1497 1494 1491 1489 1487 1486 1483 1481 1480 1478 1476
1499 1501 1496 1496 1494 1492 1491 1491 1491 1495 1496 1502 1499 1508 1515 1516 1517 1518 1518 1519 1519 1518 1518 1517 1515 1513 1511 1509 1507 1504 1500 1497 1494 1491 1488 1485 1483 1481 1479 1476 1474 1474 1472 1471
1496 1502 1496 1495 1492 1496 1494 1494 1493 1497 1511 1512 1503 1504 1510 1513 1514 1515 1516 1517 1517 1517 1516 1514 1512 1510 1508 1506 1503 1499 1496 1492 1489 1486 1482 1480 1477 1474 1472 1469 1468 1466 1465 1464
1496 1500 1499 1496 1501 1502 1498 1497 1498 1497 1503 1512 1512 1508 1507 1512 1514 1514 1515 1515 1515 1515 1513 1512 1509 1507 1504 1501 1498 1494 1491 1487 1483 1479 1476 1472 1469 1467 1464 1462 1460 1458 1457 1456
1500 1497 1501 1503 1503 1501 1500 1503 1502 1508 1511 1508 1509 1508 1508 1511 1513 1514 1514 1514 1514 1513 1511 1509 1506 1503 1500 1496 1493 1489 1485 1481 1477 1473 1469 1465 1462 1459 1456 1454 1452 1450 1448 1447
1501 1503 1507 1507 1506 1503 1504 1505 1503 1503 1505 1508 1512 1509 1508 1509 1511 1512 1513 1512 1512 1510 1507 1505 1502 1499 1495 1492 1488 1483 1479 1475 1471 1467 1462 1458 1455 1451 1448 1445 1443 1441 1439 1438
1503 1502 1505 1510 1507 1503 1506 1507 1506 1504 1506 1509 1509 1508 1503 1504 1506 1509 1510 1510 1509 1507 1504 1501 1498 1495 1491 1487 1482 1478 1473 1469 1464 1460 1456 1452 1448 1444 1440 1437 1434 1432 1430 1428
1502 1502 1503 1503 1503 1503 1505 1507 1508 1508 1510 1510 1509 1507 1503 1505 1508 1509 1509 1507 1505 1503 1500 1498 1494 1490 1486 1482 1477 1472 1467 1463 1458 1454 1449 1445 1441 1436 1433 1429 1426 1423 1421 1419
1502 1503 1504 1505 1504 1504 1506 1506 1507 1508 1507 1507 1505 1503 1503 1507 1508 1507 1506 1505 1502 1500 1497 1494 1490 1486 1481 1476 1471 1466 1462 1457 1452 1447 1443 1438 1433 1429 1425 1421 1418 1414 1411 1409
1499 1504 1506 1502 1502 1506 1505 1502 1504 1505 1504 1505 1505 1504 1502 1504 1505 1505 1504 1502 1500 1497 1494 1490 1485 1481 1476 1471 1466 1461 1456 1451 1446 1441 1436 1431 1427 1422 1417 1413 1409 1405 1402 1399
1502 1503 1502 1500 1508 1516 1502 1499 1501 1504 1503 1500 1501 1501 1502 1503 1503 1502 1500 1500 1497 1494 1490 1486 1481 1476 1471 1466 1461 1456 1450 1445 1440 1435 1430 1425 1420 1415 1410 1405 1400 1396 1393 1390
1501 1502 1501 1501 1501 1498 1498 1500 1501 1503 1501 1499 1501 1501 1502 1501 1500 1495 1497 1497 1495 1491 1487 1482 1477 1472 1466 1461 1456 1450 1445 1440 1435 1429 1424 1419 1413 1408 1402 1397 1392 1388 1384 1381
1502 1501 1500 1499 1508 1507 1496 1497 1502 1504 1499 1499 1501 1501 1500 1499 1494 1492 1495 1493 1490 1486 1482 1477 1472 1467 1462 1456 1451 1445 1440 1434 1429 1424 1418 1413 1407 1401 1395 1390 1385 1380 1376 1373
1497 1498 1498 1497 1499 1490 1492 1498 1502 1503 1500 1499 1499 1500 1500 1498 1498 1495 1492 1489 1486 1482 1478 1473 1468 1463 1457 1452 1446 1440 1435 1429 1424 1418 1412 1407 1401 1395 1389 1384 1379 1374 1370 1366
1492 1491 1495 1496 1500 1495 1493 1496 1497 1497 1498 1498 1498 1498 1498 1497 1495 1492 1490 1486 1482 1478 1474 1469 1464 1458 1453 1448 1442 1436 1430 1424 1418 1413 1407 1401 1396 1390 1384 1379 1373 1369 1365 1361
1489 1488 1486 1489 1490 1490 1491 1492 1494 1495 1496 1496 1496 1496 1496 1494 1492 1489 1486 1483 1479 1474 1470 1465 1460 1454 1449 1444 1438 1431 1425 1419 1413 1408 1402 1397 1391 1385 1380 1374 1369 1365 1361 1358
1484 1491 1489 1489 1483 1487 1490 1491 1492 1493 1494 1494 1494 1494 1493 1491 1489 1486 1483 1479 1475 1471 1466 1462 1456 1451 1445 1440 1434 1428 1421 1415 1409 1404 1398 1393 1387 1382 1376 1371 1366 1362 1358 1355
1483 1486 1485 1486 1483 1485 1486 1487 1489 1490 1490 1491 1491 1491 1490 1488 1486 1484 1480 1476 1472 1468 1463 1458 1453 1448 1442 1436 1430 1424 1418 1411 1405 1400 1395 1390 1385 1379 1373 1369 1364 1360 1357 1354
1479 1480 1482 1480 1478 1481 1481 1484 1485 1486 1487 1488 1488 1488 1487 1486 1483 1481 1477 1474 1469 1465 1460 1455 1450 1444 1438 1432 1426 1420 1414 1408 1402 1396 1391 1387 1382 1377 1371 1367 1363 1359 1356 1353